CAPE
819 760 471 138 0 0 0 0 0 233 722 568 256 37 45 57 113 48 201 224 251 184 112 116 142 125 94 185 221 255 205 289 334 73 183 427 410 646 548 198 329 784 918
760 770 743 354 148 3 0 0 0 683 771 527 54 50 91 73 199 106 43 22 118 121 145 74 44 167 131 171 196 224 301 252 56 54 78 123 148 256 157 128 177 606 835
994 1032 816 596 232 101 0 0 0 808 765 765 3 32 33 34 96 91 37 16 30 10 45 172 171 169 130 53 161 207 194 149 97 85 139 59 32 130 83 41 51 117 171
1172 931 162 742 503 212 160 251 0 577 753 951 16 0 31 50 49 110 153 75 49 48 170 217 208 391 385 280 187 376 603 455 113 241 477 221 125 118 11 25 1 2 36
1089 691 85 834 607 353 422 210 235 393 244 984 724 0 116 154 93 289 431 451 224 175 102 6 132 216 217 180 129 220 116 134 220 217 220 263 154 100 130 5 2 1 1
1154 953 829 894 694 558 645 472 99 90 144 1128 846 0 264 187 215 232 300 395 428 354 182 118 143 154 133 189 232 272 599 629 481 552 431 297 171 180 213 101 11 4 2
129 94 762 1094 889 600 1277 749 511 721 1443 1463 740 112 295 162 36 208 258 242 391 309 304 425 194 185 219 208 251 421 517 529 459 489 435 339 242 317 334 317 8 6 2
0 190 1194 1476 1255 833 1355 1064 701 941 1585 1448 756 231 358 130 155 394 319 277 379 261 251 270 336 357 267 449 416 407 425 455 402 279 286 179 189 289 236 192 48 3 1
253 61 1361 1681 1490 1315 1374 1178 1093 1094 989 1603 1194 518 669 486 333 345 218 407 236 213 190 199 331 396 291 142 241 151 121 163 197 257 235 239 285 488 324 224 156 7 0
337 517 1811 1894 1800 1716 1604 1651 1909 1483 1416 1519 1306 1102 735 432 275 187 223 280 193 172 169 215 312 214 123 97 98 115 90 70 131 100 179 178 201 292 321 255 192 57 0
634 1914 2418 2252 2138 1940 1776 1905 2015 2028 1834 1562 1275 1031 756 598 373 232 247 232 120 107 103 102 199 84 52 25 11 41 25 13 13 34 72 96 124 184 268 285 266 0 0
1977 2774 2772 2504 2198 1940 1838 1987 2121 2247 2208 1802 1316 1030 820 571 433 314 282 73 99 73 115 142 183 109 0 0 0 1 0 0 1 6 80 67 73 28 203 163 110 0 0
1455 2943 2879 2436 2167 2003 1901 1907 2145 2186 2146 1672 1190 959 675 500 425 476 230 128 138 132 123 117 105 52 0 0 0 0 0 0 0 0 8 1 18 3 26 165 7 0 0
749 1433 2911 2690 2213 2078 1923 1859 2123 2312 2116 1673 1290 1064 657 604 607 405 299 213 139 96 132 99 96 40 0 0 0 0 0 1 1 3 0 0 1 7 1 10 4 2 1
509 863 2000 2703 2326 1974 1833 1983 2286 2368 2015 1596 1367 1154 850 806 694 432 349 231 139 147 73 48 94 24 0 0 0 0 0 0 1 3 1 1 0 0 1 3 3 4 3
612 442 1104 2100 1972 1788 1858 2131 2481 2344 1900 1527 1362 1157 893 814 697 535 397 258 133 65 23 1 20 60 14 0 0 0 0 0 0 1 0 0 0 0 0 0 0 2 3
572 202 204 1538 1911 1924 1961 2211 2475 2213 1729 1378 1333 1183 1005 821 816 752 542 367 232 102 7 8 0 2 44 0 0 0 0 0 0 0 2 0 0 0 0 0 1 0 0
258 203 416 1182 2025 2070 2102 2568 2483 2132 1739 1343 1146 1107 969 997 995 866 739 585 512 286 178 6 0 0 0 0 0 0 0 0 0 0 0 0 0 0 1 2 2 3 2
269 610 1723 2111 1989 1947 2162 2516 2403 2095 1813 1382 1093 915 975 1036 1080 877 620 521 401 271 125 28 0 0 0 0 0 0 0 0 0 0 0 0 0 0 0 0 0 0 0
465 1121 2063 2212 2087 2315 2419 2301 2152 2029 1833 1707 1409 1043 912 897 596 610 330 159 188 208 17 4 2 0 0 0 0 0 6 0 0 0 0 0 0 0 0 0 0 0 0
1539 1211 1502 2033 2176 1889 1841 1865 1705 1691 1575 1287 1043 932 869 823 741 316 231 177 141 54 41 2 1 0 0 0 0 0 0 0 0 0 0 0 0 0 0 0 0 0 0
1475 1275 1082 948 830 821 1376 1576 1717 1133 1040 955 866 688 495 255 263 187 81 139 53 12 17 7 1 1 0 0 0 0 0 0 0 0 0 0 0 0 0 0 0 0 0
1170 1193 929 424 130 165 121 447 277 311 397 445 244 130 68 2 29 31 46 28 19 3 2 0 3 3 1 1 0 0 0 0 0 0 0 0 0 0 0 0 0 0 0
936 602 181 135 0 0 2 249 133 202 124 101 89 94 77 46 50 16 28 38 1 29 28 18 0 0 0 0 0 0 0 0 0 0 0 0 0 0 0 0 0 0 0
833 300 141 82 0 24 151 192 196 195 215 174 166 163 87 36 20 1 0 0 0 0 0 0 0 0 17 35 1 0 0 0 0 0 0 0 0 0 0 0 0 0 0
716 276 18 12 16 67 29 176 205 111 158 221 155 93 26 11 5 0 0 0 0 0 0 0 0 0 0 0 0 0 0 0 0 2 2 0 1 0 0 0 0 0 0
CIN
-325 -365 -457 -598 -0 -0 -0 -0 -0 -223 -61 -35 -56 -143 -105 -120 -74 -26 -6 -10 -17 -42 -33 -48 -37 -43 -43 -31 -25 -17 -20 -12 -22 -50 -17 -0 -23 -17 -15 -67 -39 -0 -7
-396 -403 -398 -597 -634 -85 -0 -0 -0 -95 -76 -73 -194 -164 -82 -95 -45 -48 -66 -71 -26 -30 -36 -50 -43 -13 -16 -18 -13 -7 -2 -19 -75 -29 -10 -6 -34 -16 -50 -63 -48 -10 -9
-332 -260 -389 -415 -557 -526 -0 -0 -0 -88 -46 -51 -141 -157 -143 -101 -53 -75 -79 -78 -57 -53 -45 -19 -13 -9 -5 -14 -25 -15 -11 -30 -46 -37 -6 -11 -13 -30 -49 -72 -69 -54 -37
-288 -277 -435 -396 -434 -443 -475 -318 -0 -122 -58 -22 -95 -0 -97 -77 -67 -57 -47 -72 -58 -52 -22 -25 -22 -2 -1 -4 -23 -11 -3 -7 -13 -13 -2 -21 -17 -2 -10 -33 -0 -0 -40
-278 -253 -458 -389 -402 -422 -333 -336 -304 -197 -159 -19 -57 -0 -77 -69 -102 -30 -9 -11 -30 -34 -40 -55 -22 -23 -30 -47 -34 -20 -35 -24 -9 -14 -14 -7 -19 -28 -0 -0 -0 -0 -0
-294 -335 -377 -378 -376 -382 -301 -274 -365 -300 -196 -26 -46 -0 -49 -27 -30 -69 -25 -6 -1 -7 -20 -48 -28 -38 -42 -24 -15 -13 -0 -0 -1 -0 -0 -3 -4 -2 -0 -0 -1 -7 -0
-509 -582 -380 -323 -344 -348 -204 -255 -239 -120 -17 -10 -60 -135 -56 -40 -75 -41 -23 -21 -1 -7 -16 -4 -45 -23 -20 -19 -10 -0 -0 -0 -0 -0 -0 -7 -3 -0 -1 -1 -4 -3 -0
-0 -443 -249 -204 -244 -320 -192 -198 -189 -100 -9 -13 -43 -97 -58 -39 -56 -34 -33 -15 -0 -2 -21 -8 -9 -2 -6 -0 -1 -3 -0 -0 -0 -13 -13 -0 -3 -7 -0 -0 -5 -3 -0
-472 -465 -206 -203 -240 -234 -193 -166 -138 -84 -57 -9 -26 -64 -41 -40 -27 -29 -52 -10 -27 -16 -19 -15 -0 -0 -0 -19 -3 -9 -15 -47 -33 -4 -9 -17 -17 -0 -2 -0 -0 -99 -0
-450 -378 -177 -183 -198 -164 -156 -128 -59 -46 -44 -24 -30 -25 -33 -62 -55 -52 -34 -10 -29 -34 -17 -2 -0 -10 -36 -32 -31 -25 -43 -58 -32 -7 -20 -0 -0 -2 -2 -1 -0 -50 -0
-345 -167 -114 -155 -142 -142 -131 -110 -56 -29 -38 -41 -42 -34 -46 -46 -52 -64 -50 -34 -51 -41 -35 -24 -3 -20 -60 -100 -100 -49 -88 -104 -84 -68 -29 -9 -1 -0 -0 -0 -0 -0 -0
-197 -101 -103 -122 -139 -136 -142 -104 -55 -31 -18 -30 -50 -37 -55 -63 -43 -58 -46 -92 -101 -90 -44 -14 -0 -10 -0 -0 -0 -0 -1 -9 -126 -166 -54 -17 -23 -47 -0 -2 -8 -0 -0
-264 -114 -113 -128 -137 -121 -125 -109 -69 -37 -23 -48 -61 -52 -92 -84 -73 -44 -86 -101 -75 -92 -84 -51 -28 -34 -0 -0 -0 -0 -0 -0 -0 -0 -104 -0 -29 -135 -92 -3 -11 -0 -0
-363 -271 -110 -111 -138 -129 -133 -131 -79 -38 -43 -59 -67 -71 -108 -71 -56 -86 -101 -103 -80 -81 -78 -88 -55 -62 -0 -0 -0 -0 -0 -0 -0 -0 -0 -0 -0 -64 -0 -59 -0 -0 -0
-403 -341 -183 -114 -131 -155 -144 -131 -76 -55 -75 -83 -74 -67 -63 -36 -47 -74 -72 -86 -88 -43 -45 -75 -43 -63 -0 -0 -0 -0 -0 -0 -0 -0 -0 -0 -0 -0 -0 -0 -0 -0 -0
-328 -352 -272 -171 -161 -154 -133 -106 -82 -69 -80 -81 -74 -62 -79 -44 -51 -39 -43 -57 -69 -99 -101 -44 -75 -35 -39 -0 -0 -0 -0 -0 -0 -0 -0 -0 -0 -0 -0 -0 -0 -0 -0
-337 -368 -383 -219 -178 -159 -162 -133 -84 -82 -74 -83 -58 -43 -76 -75 -44 -29 -42 -38 -39 -62 -26 -60 -0 -47 -28 -0 -0 -0 -0 -0 -0 -0 -0 -0 -0 -0 -0 -0 -0 -0 -0
-529 -432 -385 -269 -205 -221 -172 -84 -72 -81 -83 -87 -80 -59 -76 -60 -39 -30 -24 -18 -9 -20 -7 -37 -40 -0 -0 -0 -0 -0 -0 -0 -0 -0 -0 -0 -0 -0 -0 -0 -0 -0 -0
-546 -410 -221 -178 -218 -180 -137 -87 -58 -56 -39 -61 -66 -79 -83 -46 -36 -33 -51 -36 -39 -27 -35 -24 -11 -0 -0 -0 -0 -0 -0 -0 -0 -0 -0 -0 -0 -0 -0 -0 -0 -0 -0
-511 -336 -162 -178 -174 -136 -118 -87 -46 -24 -20 -28 -39 -69 -81 -84 -102 -75 -101 -144 -105 -61 -108 -35 -2 -0 -0 -0 -0 -0 -0 -0 -0 -0 -0 -0 -0 -0 -0 -0 -0 -0 -0
-268 -281 -206 -152 -127 -146 -106 -48 -43 -36 -49 -78 -80 -88 -76 -74 -58 -112 -111 -133 -126 -157 -124 -0 -0 -0 -0 -0 -0 -0 -0 -0 -0 -0 -0 -0 -0 -0 -0 -0 -0 -0 -0
-209 -264 -300 -262 -238 -140 -19 -23 -18 -76 -91 -140 -112 -109 -123 -122 -114 -115 -162 -142 -145 -194 -207 -71 -0 -0 -0 -0 -0 -0 -0 -0 -0 -0 -0 -0 -0 -0 -0 -0 -0 -0 -0
-192 -200 -296 -399 -513 -402 -405 -15 -96 -123 -123 -153 -192 -272 -286 -24 -216 -192 -175 -170 -135 -13 -19 -0 -0 -5 -0 -0 -0 -0 -0 -0 -0 -0 -21 -0 -0 -0 -0 -0 -0 -0 -0
-142 -310 -429 -412 -0 -0 -54 -221 -35 -101 -132 -151 -203 -234 -167 -119 -136 -162 -135 -143 -3 -196 -137 -145 -1 -0 -0 -0 -0 -0 -0 -0 -0 -0 -0 -0 -0 -0 -0 -0 -0 -0 -0
-112 -303 -336 -322 -0 -318 -353 -314 -151 -113 -143 -71 -100 -106 -112 -121 -147 -0 -10 -0 -0 -0 -0 -0 -0 -8 -33 -21 -0 -0 -0 -0 -0 -0 -0 -0 -0 -0 -0 -0 -0 -0 -0
-77 -246 -476 -284 -353 -244 -227 -61 -70 -147 -150 -27 -54 -103 -143 -155 -0 -0 -0 -0 -0 -0 -0 -0 -0 -0 -0 -0 -0 -0 -0 -0 -0 -0 -0 -0 -0 -0 -0 -0 -0 -0 -0
Wind_Speed
8 9 10 13 14 14 12 11 12 13 14 15 14 13 12 14 15 12 10 7 9 9 11 9 4 13 13 11 14 23 30 31 22 25 22 17 20 19 17 16 12 7 10
7 8 6 4 9 12 12 11 11 11 12 13 14 15 15 17 17 14 10 13 13 15 14 16 20 21 18 16 14 29 26 22 15 17 21 17 15 14 16 17 18 17 18
8 9 6 8 8 10 11 10 10 10 10 12 15 16 17 16 15 15 13 9 10 19 19 17 24 27 22 11 4 9 9 18 13 17 19 17 18 15 17 19 19 18 18
13 10 7 12 11 9 10 10 10 9 9 11 12 13 14 16 14 14 14 12 9 4 9 15 19 23 22 20 14 12 10 8 6 10 21 22 18 17 16 16 16 16 16
11 9 5 10 8 9 9 10 10 10 9 10 10 10 13 14 14 13 14 13 12 10 13 14 17 16 15 16 14 14 13 15 14 10 20 13 18 17 15 14 13 16 17
11 5 8 13 7 9 10 10 11 10 10 9 9 8 9 12 12 12 12 12 12 13 15 16 20 17 18 18 18 17 14 15 18 16 12 11 14 8 10 14 13 11 14
8 6 11 13 9 9 10 10 11 10 11 9 9 8 8 11 11 13 13 15 11 13 16 16 17 18 17 16 16 17 17 17 19 12 15 15 11 14 8 8 9 10 11
8 9 10 11 12 11 11 11 11 11 11 10 8 9 9 10 14 11 16 12 11 11 12 15 16 15 15 16 15 16 17 17 17 21 21 20 16 9 11 5 7 9 10
6 7 10 13 13 12 11 11 12 11 11 10 9 10 10 13 15 14 15 12 12 12 12 12 14 15 15 15 16 16 16 18 20 20 20 21 20 13 12 5 9 8 7
6 9 10 12 13 11 12 12 12 12 12 11 11 12 12 13 14 13 13 13 13 14 13 12 13 12 13 14 14 15 17 17 20 20 19 20 20 19 12 8 5 6 7
8 9 10 11 10 10 11 12 12 12 12 12 12 12 12 12 13 13 12 12 13 14 14 14 13 12 14 16 17 18 18 19 19 18 17 17 17 18 15 13 6 5 6
7 7 8 10 10 12 12 12 11 10 10 11 12 11 12 12 12 12 12 12 13 13 14 14 13 13 14 14 15 15 15 17 17 17 16 16 16 16 15 12 7 4 6
3 4 6 8 10 9 10 10 10 9 10 11 11 11 12 12 12 11 10 10 10 11 11 12 13 13 15 16 15 16 17 17 17 15 16 16 16 15 15 12 8 4 5
6 4 6 6 6 5 7 8 8 9 10 10 10 10 11 11 11 11 9 9 9 9 11 11 11 12 13 15 15 14 14 15 16 16 16 16 16 15 13 12 8 5 5
1 1 1 1 3 4 5 6 7 8 9 9 10 10 10 10 9 9 8 8 8 9 10 12 13 12 13 14 16 15 13 14 15 15 15 16 15 14 13 12 9 6 6
14 10 3 6 2 2 4 5 6 6 7 8 9 10 11 10 9 8 8 7 6 5 5 8 7 11 13 13 12 14 14 14 14 14 14 13 13 13 12 12 10 8 7
9 8 4 4 3 3 3 5 4 6 6 7 8 9 10 9 8 8 7 6 6 6 7 6 5 8 14 11 11 12 14 14 14 14 14 13 13 12 11 11 11 10 11
19 12 9 6 4 3 1 1 2 4 6 5 6 7 7 8 8 8 8 8 8 7 9 9 8 9 10 13 10 11 13 13 14 15 14 13 12 12 10 10 10 11 11
21 15 10 8 6 5 3 1 3 3 3 4 5 6 6 7 8 8 10 11 12 12 13 14 8 1 5 11 11 11 14 15 15 15 15 14 12 11 10 11 10 11 11
22 14 11 8 5 6 5 4 5 3 2 3 4 6 6 7 7 8 9 13 14 14 17 18 16 7 1 4 12 6 14 15 16 16 15 14 14 11 11 13 12 12 11
23 16 13 11 10 7 8 8 7 6 6 6 8 8 10 9 9 9 10 12 14 15 16 18 20 16 5 5 13 10 11 13 13 16 17 16 13 12 12 15 14 14 11
21 16 12 12 13 12 17 14 14 12 9 7 9 11 11 9 8 8 10 13 14 16 18 18 19 17 12 7 16 14 8 11 10 11 13 16 16 14 14 14 14 13 10
18 11 8 7 8 8 13 27 21 18 16 13 13 12 10 10 9 9 10 12 14 17 19 19 19 18 14 10 5 6 3 3 3 3 2 7 8 14 17 16 14 13 12
16 10 8 10 11 12 8 11 22 15 16 16 13 11 10 10 11 11 11 13 14 16 17 19 20 19 16 12 9 6 4 7 8 6 9 7 7 9 13 15 15 14 15
20 17 18 16 15 13 10 8 7 11 12 16 16 12 12 11 11 12 13 15 16 18 18 19 22 24 24 18 14 10 8 6 6 6 11 15 16 10 10 12 14 16 16
22 19 20 17 10 7 9 9 10 7 3 10 15 11 11 9 9 12 14 15 17 18 18 19 19 20 17 21 22 23 16 10 12 14 14 16 14 13 13 13 14 16 13
Wind_Direction
89 72 63 43 50 71 107 107 100 90 82 75 74 64 70 51 28 348 311 304 288 281 275 286 298 291 292 293 294 282 263 246 299 293 298 301 286 300 308 314 325 331 325
111 124 115 75 52 68 91 103 103 100 89 77 74 65 65 52 37 33 352 288 288 271 278 281 281 282 291 289 290 259 272 292 311 300 290 299 305 317 320 322 318 318 316
149 159 21 125 66 67 79 105 106 104 109 85 72 66 53 57 63 58 33 353 316 269 275 289 270 268 285 285 236 289 295 297 312 289 291 306 305 321 320 321 320 319 318
161 151 94 129 113 69 69 98 104 106 114 103 83 70 67 27 57 51 46 52 56 44 313 294 283 272 279 279 292 298 300 306 316 324 286 290 310 317 325 330 332 334 334
156 158 108 137 97 63 68 95 86 105 115 114 99 81 45 49 24 26 45 25 28 353 316 310 295 296 299 294 299 298 306 301 307 321 291 317 302 310 324 332 340 337 332
145 95 121 140 93 66 74 93 79 101 117 108 98 102 76 51 52 30 18 7 13 346 319 301 281 301 296 294 294 301 310 306 302 306 313 319 318 333 329 330 340 359 352
135 98 112 134 107 94 87 91 88 100 114 105 101 100 113 73 60 331 6 320 48 357 320 313 309 296 303 306 304 301 302 299 295 316 309 309 323 319 341 350 1 14 38
84 110 120 117 122 117 109 96 99 103 109 103 109 103 111 134 150 106 285 110 71 67 25 327 312 318 321 313 308 303 301 299 307 293 290 295 309 327 325 39 69 38 42
78 116 115 122 124 122 112 109 102 102 102 100 102 106 117 129 152 145 149 54 38 44 52 19 340 315 318 323 309 312 310 292 289 297 293 289 288 310 309 73 112 86 58
82 105 103 116 122 115 113 108 101 100 91 89 84 85 93 113 127 111 113 52 32 28 33 40 8 5 342 331 337 331 304 301 288 294 294 285 284 284 297 317 81 15 28
95 89 91 100 93 88 106 111 112 102 88 87 75 75 84 98 117 100 85 59 47 34 17 6 356 356 338 320 314 295 296 293 294 303 306 300 293 284 288 290 328 350 17
78 81 88 101 104 121 120 117 112 99 89 77 74 83 82 91 108 106 90 67 51 45 29 13 10 358 341 337 324 319 316 303 303 306 306 304 300 288 287 295 318 357 351
42 60 91 118 119 118 112 114 113 105 87 69 76 80 84 100 109 104 84 81 62 49 40 24 11 354 337 328 325 319 309 303 303 313 306 302 297 292 289 297 316 347 349
154 123 142 131 121 105 102 105 96 92 81 75 77 86 93 107 106 109 91 79 55 40 19 14 5 354 342 329 327 329 324 317 307 308 307 303 297 296 296 302 320 340 352
284 242 174 172 145 113 104 95 97 88 82 81 80 95 101 108 97 99 100 78 65 42 18 15 353 342 336 329 318 320 323 318 310 311 312 309 307 304 302 307 320 339 339
200 192 207 302 278 165 131 110 99 78 75 76 86 105 109 112 97 94 89 92 83 66 42 23 34 352 328 328 330 319 315 316 314 313 317 320 319 320 319 319 325 328 329
286 290 256 272 251 213 162 141 110 87 76 74 76 100 107 106 104 89 70 81 93 52 16 10 24 357 322 323 322 324 317 313 312 314 315 318 322 326 332 334 333 333 327
304 296 293 284 272 255 289 14 51 80 94 62 70 84 85 93 86 66 47 59 57 47 27 7 355 335 334 320 314 314 315 315 312 310 312 314 321 326 333 336 335 335 334
310 303 301 288 283 270 282 297 331 352 67 51 45 61 73 80 73 51 30 28 30 31 27 11 6 345 329 327 309 306 307 305 307 307 308 310 315 322 326 328 333 333 332
308 301 304 297 285 279 280 289 310 329 352 34 36 21 50 61 62 63 47 25 23 27 21 27 21 52 79 348 313 309 303 305 303 304 305 306 307 312 314 315 319 320 322
309 295 295 289 292 293 290 293 298 302 317 339 344 357 352 18 49 65 44 25 19 17 17 19 21 28 50 319 297 304 306 310 311 302 300 302 306 307 309 308 311 313 323
315 304 293 295 304 309 301 298 296 299 308 328 330 339 345 5 39 47 32 19 12 5 3 5 9 25 46 75 304 303 307 308 313 315 316 305 296 299 301 304 308 316 321
317 315 296 289 305 314 331 301 300 292 296 307 315 326 343 350 7 21 24 16 9 358 353 353 354 359 20 30 50 174 325 205 277 303 318 331 317 299 293 296 303 307 309
308 297 286 278 270 275 294 296 290 292 303 302 304 319 332 341 349 356 6 4 359 357 352 344 337 339 353 8 21 10 4 305 292 295 303 310 309 302 299 296 294 297 298
302 290 289 287 281 275 255 217 240 302 298 292 294 313 321 334 344 355 5 5 2 356 354 345 332 321 318 329 332 326 322 308 280 286 299 299 293 280 284 289 292 293 292
302 295 291 293 287 274 289 287 292 292 301 292 294 310 322 343 353 354 359 2 353 349 350 347 346 340 339 327 322 317 318 300 299 299 287 287 291 280 275 274 287 285 283